This is the latest recevied weather packets stored in our database for station/object SP9KB-13. If no packets are shown the sender has not sent any weather packets the latest 10 day(s).
| Time | Temp. | Humidity | Pressure | Rain* | Wind** | Luminosity | Snow |
|---|---|---|---|---|---|---|---|
| 1778045607 | 15.56° C | 54% | 990.8 hPa | 0 mm | - | - | - |
| 1778045306 | 15.56° C | 55% | 990.7 hPa | 0 mm | - | - | - |
| 1778045006 | 15.56° C | 53% | 990.8 hPa | 0 mm | - | - | - |
| 1778044705 | 15.56° C | 53% | 990.6 hPa | 0 mm | - | - | - |
| 1778044405 | 15° C | 53% | 990.9 hPa | 0 mm | - | - | - |
| 1778044104 | 15° C | 54% | 990.7 hPa | 0 mm | - | - | - |
| 1778043803 | 15° C | 55% | 990.7 hPa | 0 mm | - | - | - |
| 1778043503 | 15° C | 54% | 990.7 hPa | 0 mm | - | - | - |
| 1778043203 | 14.44° C | 54% | 990.7 hPa | 0 mm | - | - | - |
| 1778042902 | 14.44° C | 55% | 990.6 hPa | 0 mm | - | - | - |
| 1778042601 | 14.44° C | 54% | 990.6 hPa | 0 mm | - | - | - |
| 1778042301 | 15° C | 53% | 990.6 hPa | 0 mm | - | - | - |
| 1778042000 | 15° C | 53% | 990.7 hPa | 0 mm | - | - | - |
| 1778041700 | 15.56° C | 55% | 990.6 hPa | 0 mm | - | - | - |
| 1778041399 | 15° C | 53% | 990.6 hPa | 0 mm | - | - | - |
| 1778041099 | 14.44° C | 55% | 990.6 hPa | 0 mm | - | - | - |
| 1778040798 | 13.89° C | 57% | 990.7 hPa | 0 mm | - | - | - |
| 1778040500 | 13.33° C | 58% | 990.7 hPa | 0 mm | - | - | - |
| 1778040197 | 13.33° C | 57% | 990.6 hPa | 0 mm | - | - | - |
| 1778039897 | 12.78° C | 59% | 990.5 hPa | 0 mm | - | - | - |
| 1778039596 | 12.22° C | 60% | 990.7 hPa | 0 mm | - | - | - |
| 1778039296 | 11.67° C | 64% | 990.6 hPa | 0 mm | - | - | - |
| 1778038995 | 10° C | 69% | 990.6 hPa | 0 mm | - | - | - |
| 1778038694 | 10° C | 72% | 990.7 hPa | 0 mm | - | - | - |
| 1778038394 | 9.44° C | 73% | 990.7 hPa | 0 mm | - | - | - |
* Rain latest hour (hover to see other rain measurements)
** Current wind speed in m/s (hover to see current wind gust speed)